Regional Weather Roundup
Issued by NWS

Home | Current Version | Previous Version | Graphics & Text | Print | Product List | Glossary On
Versions: 1 2 3 4 5 6 7 8 9 10 11 12 13 14 15 16 17 18 19 20 21 22 23 24 25 26 27 28 29 30 31 32 33 34 35 36 37 38 39 40 41 42 43 44 45 46 47 48 49 50
000
ASUS43 KLOT 180106
RWRIL

ILLINOIS REGIONAL WEATHER ROUNDUP
NATIONAL WEATHER SERVICE CHICAGO/ROMEOVILLE IL
700 PM CST WED DEC 17 2014

NOTE: "FAIR" INDICATES FEW OR NO CLOUDS BELOW 12,000 FEET WITH NO
SIGNIFICANT WEATHER AND/OR OBSTRUCTIONS TO VISIBILITY.

* THESE STATIONS ARE NOT UNDER NWS QUALITY CONTROL. THEY ALSO MAY NOT
  REPORT WEATHER SUCH AS PRECIPITATION OR FOG.

ILZ001-002-007-009-015-016-024-180200-
NORTHWEST ILLINOIS

CITY           SKY/WX    TMP DP  RH WIND       PRES   REMARKS
MOLINE         CLEAR     24  15  68 NW3       30.30S
STERLING*      CLEAR     21  14  73 N5        30.29S WCI  15
SAVANNA*       CLEAR     20  15  81 CALM      30.30R
$$

ILZ003-004-008-010-011-017-018-180200-
NORTH CENTRAL ILLINOIS

CITY           SKY/WX    TMP DP  RH WIND       PRES   REMARKS
ROCKFORD       CLOUDY    24  16  71 W8        30.29S WCI  15
FREEPORT*      CLOUDY    21  15  80 NW6       30.29S WCI  13
ROCHELLE*      MOCLDY    21  16  81 W5        30.29R WCI  15
DE KALB*       CLOUDY    22  17  79 W10       30.27R WCI  11
PERU*          CLOUDY    26  19  73 NW7       30.31S WCI  18
$$

ILZ005-006-012>014-019>023-180200-
NORTHEAST ILLINOIS

CITY           SKY/WX    TMP DP  RH WIND       PRES   REMARKS
CHICAGO-OHARE  CLOUDY    25  15  66 NW10      30.26R WCI  15
CHICAGO-MIDWAY CLOUDY    27  16  63 NW7       30.27R WCI  19
AURORA         CLOUDY    25  17  72 W8        30.28R WCI  16
LANSING*       CLOUDY    26  17  67 W6        30.27R WCI  20
JOLIET*        CLOUDY    25  17  71 NW5       30.29R WCI  19
WAUKEGAN       CLOUDY    24  16  71 W5        30.24R WCI  18
DUPAGE AIRPORT CLOUDY    25  17  72 W9        30.26R WCI  15
KANKAKEE*      CLOUDY    26  20  78 W8        30.29S WCI  18
WHEELING       CLOUDY    25  15  66 W8        30.27S WCI  16
MORRIS*        CLOUDY    26  21  79 W8        30.29R WCI  18
ROMEOVILLE*    CLOUDY    25  18  74 NW8       30.28R WCI  16
NORTHERLY ISL    N/A     27  18  69 NW9         N/A  WCI  18
$$

LMZ740>746-180200-
SOUTHERN LAKE MICHIGAN

STATION/POSITION SKY/WX   TEMP    WIND        PRES    VSBY  WAVE
                          AIR SEA DIR/SP/G                  HT/PER
                          (F)     (DEG/KT/KT) (MB)    (MI)  (FT/S)
WAUKEGAN HARBOR            25     300/  4/ 10   N/A
HARRISON CRIB              26     280/ 10/ 12   N/A
BURNHAM HARBOR             27     280/  5/ 11   N/A
CALUMET HARBOR             26     280/  8/ 12 1023.5S
$$

ILZ025>027-034>036-040-047-049-050-058-095>099-180200-
WEST-CENTRAL ILLINOIS

CITY           SKY/WX    TMP DP  RH WIND       PRES   REMARKS
QUINCY         PTCLDY    23  18  81 NE7       30.28F WCI  15
GALESBURG*     CLEAR     20  17  88 CALM      30.29F
MACOMB*        CLEAR     22  20  91 CALM      30.32F
JACKSONVILLE*  CLEAR     26  20  80 N6        30.29F WCI  19
PITTSFIELD*    PTCLDY    26  21  82 NE3       30.30R
$$

ILZ028>032-037-038-041>044-048-051>054-059>061-180200-
CENTRAL ILLINOIS

CITY           SKY/WX    TMP DP  RH WIND       PRES   REMARKS
PONTIAC        CLOUDY    28  20  75 NW7       30.31S WCI  20
BLOOMINGTON    CLOUDY    25  21  84 SW6       30.30S WCI  18
DECATUR        CLOUDY    24  19  81 NW6       30.31F WCI  17
PEORIA         CLOUDY    25  18  74 CALM      30.30F
LACON*         CLEAR     24  17  74 N3        30.30S
LINCOLN*       CLEAR     24  21  85 CALM      30.32F
SPRINGFIELD    CLEAR     21  17  84 N5        30.31F WCI  15
TAYLORVILLE    CLEAR     25  21  86 NE8       30.30F WCI  16
$$

ILZ033-039-045-046-055>057-062-063-180200-
EAST-CENTRAL ILLINOIS

CITY           SKY/WX    TMP DP  RH WIND       PRES   REMARKS
CHAMPAIGN      CLOUDY    24  18  77 NW8       30.30F WCI  15
DANVILLE*      CLOUDY    25  20  82 W6        30.28S WCI  18
MATTOON        CLOUDY    24  18  77 N7        30.30S WCI  16
PARIS*         CLOUDY    25  21  87 NW6       30.32S WCI  18
$$

ILZ079-100>102-180200-
SOUTHWEST ILLINOIS

CITY           SKY/WX    TMP DP  RH WIND       PRES   REMARKS
ALTON          MOCLDY    30  25  80 N6        30.31R WCI  24
BELLEVILLE     MOCLDY    33  27  79 NE3       30.30R
CAHOKIA*       MOCLDY    34  26  72 NE5       30.30R WCI  30
SPARTA*        CLOUDY    34  30  86 CALM      30.30R
$$

ILZ064>066-069>071-074>076-080>082-084>086-088>090-092>094-180200-
SOUTH-CENTRAL ILLINOIS

CITY           SKY/WX    TMP DP  RH WIND       PRES   REMARKS
CARBONDALE     MOCLDY    33  28  81 CALM      30.29F
CAIRO*         CLOUDY    39  32  75 CALM      30.29S
EFFINGHAM*     PTCLDY    28  22  76 CALM      30.31F
MT. VERNON     MOCLDY    32  21  64 N5        30.30R WCI  27
CENTRALIA*     MOCLDY    30  25  81 NE5       30.30R WCI  25
SALEM*         MOCLDY    31  26  82 NE5       30.30S WCI  26
METROPOLIS*    PTCLDY    35  30  83 CALM      30.28S
$$

ILZ067-068-072-073-078-083-087-091-180200-
SOUTHEAST ILLINOIS

CITY           SKY/WX    TMP DP  RH WIND       PRES   REMARKS
LAWRENCEVILLE  CLOUDY    29  22  75 NW7       30.32S WCI  22
FLORA*         PTCLDY    29  25  85 N5        30.31F WCI  24
FAIRFIELD*     PTCLDY    30  26  84 N5        30.30S WCI  26
HARRISBURG*    PTCLDY    33  28  83 CALM      30.30F
ROBINSON*      CLOUDY    28  24  82 NW8       30.34R WCI  20
CARMI*         CLEAR     32  29  90 NE6       30.30S WCI  26
$$

ABBREVIATIONS USED IN REMARKS
   TC - TEMPERATURE IN CELSIUS
  WCI - WIND CHILL INDEX
   HX - HEAT INDEX
  VSB - VISIBILITY
$$



USA.gov is the U.S. government's official web portal to all federal, state and local government web resources and services.